RH
63 68 65 60 62 62 58 55 56 56 56 58 56 55 57 55 55 54 50 48 51 51 45 49 48 47 46 44 40 44 46 45 39 39 39 38 34 32 32 30 30 32 29
65 70 65 59 57 61 58 56 55 55 54 53 59 57 53 59 58 59 50 47 44 46 44 48 50 47 48 44 41 40 42 40 47 36 36 34 32 34 33 33 30 33 30
69 64 65 61 57 58 58 56 57 58 58 59 61 58 56 55 54 50 52 49 44 44 44 45 46 47 45 46 43 41 41 40 49 42 42 38 32 35 38 36 34 32 33
64 60 64 62 58 56 56 58 56 56 58 58 62 55 48 48 52 48 50 49 45 45 44 44 44 46 49 44 44 43 43 43 44 46 41 46 36 35 35 38 38 35 30
66 62 62 60 56 58 58 57 57 59 62 66 64 65 62 61 58 58 51 48 48 46 48 46 47 46 48 44 43 43 42 40 42 41 44 43 42 37 36 37 40 38 36
83 83 77 74 62 60 58 59 62 65 64 66 60 64 68 65 59 58 57 55 51 51 50 48 46 46 47 45 46 44 42 42 44 44 43 40 35 35 34 38 40 33 36
86 88 88 91 83 65 64 63 63 65 59 60 61 63 65 65 62 55 56 55 56 52 49 47 46 46 48 49 48 48 50 49 47 44 48 47 46 43 39 35 40 32 37
85 90 92 92 94 88 82 78 76 76 70 63 65 64 64 64 62 60 57 56 56 55 48 47 45 46 47 47 47 48 50 49 47 45 45 45 45 42 39 36 38 38 35
92 92 91 93 93 96 94 94 90 89 87 84 83 78 74 67 71 74 72 60 58 48 47 46 44 42 43 44 47 46 45 42 42 42 43 45 46 44 44 43 37 31 34
91 93 94 93 93 94 95 95 96 96 96 95 88 80 71 69 74 74 70 58 53 48 48 46 44 42 42 42 41 42 42 42 44 43 42 44 45 45 45 45 46 42 37
94 94 94 94 95 94 94 95 94 93 92 90 92 93 90 78 67 65 61 58 55 51 48 46 44 42 41 39 40 40 40 40 40 41 40 42 41 44 43 43 44 44 41
94 94 95 95 94 95 94 94 94 93 93 93 90 90 90 92 93 91 77 59 58 52 49 47 46 45 43 40 39 36 38 38 39 39 40 42 35 41 42 42 41 41 43
91 93 93 94 94 95 95 95 95 95 95 94 91 89 89 84 80 81 84 87 70 52 49 48 48 47 46 44 42 42 41 40 40 40 40 41 40 40 42 42 42 42 36
90 89 93 95 95 95 95 95 95 95 95 95 95 94 93 91 88 70 52 53 55 52 50 49 49 49 47 44 42 40 42 42 41 42 42 41 41 40 39 39 38 38 41
83 87 92 93 94 94 94 95 95 95 95 95 95 95 94 94 94 94 92 82 53 48 48 47 47 47 44 39 41 38 41 42 42 42 41 42 44 49 48 45 56 57 54
90 88 84 83 87 89 93 93 94 94 95 95 96 95 94 94 94 93 94 93 94 94 92 87 73 54 40 46 51 49 44 43 45 50 47 42 49 51 56 56 56 60 78
95 88 92 92 89 91 94 92 90 89 92 94 93 94 94 94 94 92 92 92 92 93 93 93 93 93 91 91 91 90 91 85 81 74 65 56 49 56 50 58 57 55 57
93 88 89 92 91 90 93 94 87 86 88 91 93 94 94 91 92 94 92 90 90 91 90 90 90 90 86 90 91 91 93 92 88 80 68 58 54 50 49 47 47 46 44
92 94 97 98 96 88 94 94 86 85 88 92 94 93 93 94 91 90 90 89 90 87 85 82 85 86 82 86 90 89 89 85 83 72 62 53 50 57 61 56 63 55 52
92 92 86 97 91 86 96 91 86 89 88 89 89 88 92 92 93 91 92 87 84 83 74 74 77 80 86 85 87 86 85 90 76 65 56 63 55 60 60 54 62 74 60
89 88 94 93 89 88 99 93 92 90 87 91 92 90 94 92 90 93 92 92 90 81 83 75 70 67 67 64 71 76 79 80 75 66 64 55 62 61 63 67 64 74 57
75 73 88 88 84 84 98 95 94 86 90 94 93 93 95 93 90 95 93 92 95 95 93 91 85 72 68 73 70 65 62 65 72 78 62 61 65 62 64 63 69 67 62
71 71 87 86 79 82 91 93 87 90 90 94 95 95 94 93 92 98 96 95 95 98 95 93 91 86 70 63 75 69 64 61 51 51 63 65 64 66 64 64 64 66 70
70 67 70 76 78 83 77 89 84 83 94 96 95 93 98 94 94 88 88 93 95 98 97 96 95 92 87 78 66 58 60 66 57 57 53 60 63 66 68 83 87 76 81
69 69 73 78 81 78 86 81 71 80 92 95 96 95 86 94 93 90 93 96 92 96 95 94 92 93 92 84 76 72 72 72 68 67 70 68 63 56 49 46 46 50 64
79 83 80 85 76 78 84 83 81 87 96 97 87 89 88 90 87 92 91 87 78 71 74 78 90 92 88 82 79 70 63 64 76 86 85 81 71 66 62 58 54 50 54
Wind_Speed
4 6 9 12 13 12 13 14 14 12 10 8 7 5 4 3 4 4 6 6 6 7 10 8 9 8 9 11 12 12 15 11 12 11 11 9 9 9 7 7 7 9 9
11 3 7 9 10 11 12 12 13 12 9 7 4 4 5 3 4 3 5 7 8 7 8 9 9 10 10 12 13 13 10 7 4 6 6 5 4 5 5 6 7 8 7
18 10 7 8 8 9 10 10 11 12 8 8 8 7 7 5 3 3 4 4 7 7 8 8 8 9 9 10 11 12 11 9 2 5 4 5 4 5 2 4 4 5 5
21 9 8 8 8 8 8 9 10 11 10 9 7 10 5 7 3 4 5 6 7 7 7 7 8 8 6 10 9 6 5 7 8 3 3 3 5 5 5 2 2 3 5
24 4 4 6 8 7 8 9 10 9 11 8 7 5 7 5 5 5 9 7 7 7 7 6 7 7 5 7 8 7 7 4 6 3 3 3 3 3 4 5 5 2 2
21 18 13 10 8 6 7 7 9 9 9 9 8 8 9 8 7 5 5 5 5 5 7 7 6 7 6 7 6 6 6 6 5 4 4 3 3 4 3 4 4 4 3
19 19 18 12 10 8 7 7 8 8 9 9 8 8 9 9 9 8 6 8 5 4 6 8 8 6 7 8 8 8 8 7 7 7 5 4 3 3 3 5 4 3 2
18 18 18 16 13 12 11 9 10 9 7 7 7 7 8 5 5 5 6 5 5 5 8 8 8 8 8 7 8 7 7 8 7 9 7 6 5 4 3 4 5 3 2
17 18 18 17 16 15 15 11 11 10 10 8 6 6 5 6 6 6 5 5 6 7 8 8 8 8 8 7 7 6 7 7 7 7 7 6 5 5 5 5 3 3 4
18 17 17 17 16 16 14 16 14 13 11 10 8 7 6 5 6 6 6 7 7 8 9 8 8 8 8 7 7 6 6 7 5 5 7 6 4 5 4 4 4 3 2
16 16 16 15 15 15 16 15 15 15 14 12 11 10 9 9 6 5 5 6 6 7 8 8 8 8 7 6 7 6 6 7 6 5 6 6 6 4 4 4 3 3 3
14 14 15 16 17 16 15 15 14 14 13 11 12 12 11 10 9 8 8 7 7 6 6 7 7 7 7 6 6 6 5 5 5 5 5 6 4 5 4 3 4 4 4
14 13 14 15 14 14 14 13 14 12 9 8 10 11 11 10 11 10 9 7 7 7 6 6 6 6 6 5 5 5 5 4 4 4 4 4 4 4 3 4 4 4 4
13 13 12 11 12 12 11 11 11 11 11 10 9 8 7 6 7 7 7 8 6 6 5 5 5 5 5 4 4 4 4 4 4 4 4 5 5 5 6 4 6 5 6
13 12 11 11 11 11 11 10 10 10 10 9 8 8 7 7 5 4 4 4 4 4 4 5 5 5 5 5 6 6 6 6 6 6 6 7 9 11 9 6 7 7 6
10 10 11 11 11 10 9 9 10 10 8 7 6 6 6 5 5 5 5 3 2 1 3 3 3 3 4 10 11 10 7 8 8 8 8 8 11 11 15 14 14 12 9
7 7 7 7 7 8 8 9 9 8 8 8 7 6 6 6 4 3 3 3 2 2 2 2 3 4 5 11 13 14 7 8 8 9 9 9 8 11 9 13 17 19 21
6 6 6 5 5 5 5 5 7 8 8 7 6 6 5 6 6 5 5 4 3 3 3 3 4 5 5 12 14 15 8 7 8 10 11 12 12 11 11 12 13 14 13
5 5 4 4 4 5 5 3 5 6 7 7 7 8 8 7 7 6 6 6 6 5 5 6 6 7 6 12 15 14 8 8 8 9 11 12 12 15 20 14 14 14 14
5 6 7 4 5 5 4 3 5 5 5 6 7 6 6 6 6 7 7 6 7 7 7 8 7 10 8 12 14 13 7 9 8 11 13 21 19 22 23 15 14 15 14
6 6 4 5 7 6 3 5 5 6 6 5 5 6 5 5 6 6 6 7 7 8 8 9 9 9 10 10 16 17 10 9 9 10 9 10 20 23 25 26 15 16 15
9 7 7 6 7 6 2 6 6 8 5 5 6 6 6 5 6 6 7 7 7 8 8 8 8 7 9 15 16 20 21 18 12 11 10 11 22 25 26 23 25 27 25
10 7 6 8 7 7 5 6 8 6 6 5 6 6 7 7 6 5 7 6 6 6 7 7 7 7 8 8 18 21 23 23 16 10 14 23 26 28 25 29 28 27 12
10 9 9 9 9 6 9 6 8 8 5 7 8 7 6 9 6 5 6 6 6 5 6 6 7 7 7 8 9 9 9 15 13 15 13 16 21 24 21 12 8 6 8
10 9 9 9 10 8 7 7 9 8 7 7 7 8 8 7 8 7 6 6 8 9 7 7 8 7 8 11 16 12 8 8 12 13 8 8 9 9 9 10 11 9 8
10 10 10 9 11 9 8 8 8 7 7 7 8 7 6 6 7 7 8 16 19 20 22 24 17 11 21 24 24 24 24 25 27 14 12 11 9 10 9 8 8 8 12
Wind_Direction
291 190 172 159 155 157 148 153 146 145 141 138 129 124 121 122 107 103 119 122 125 135 137 133 138 135 128 130 128 121 120 113 119 109 89 74 68 70 68 71 73 71 70
330 208 169 166 177 159 156 154 152 151 152 144 111 114 132 90 83 101 119 130 128 129 137 144 144 138 131 135 140 141 131 122 169 123 114 128 109 70 56 62 72 71 68
324 294 187 169 153 160 157 160 152 145 134 115 111 105 98 93 99 132 117 125 132 130 139 142 144 141 146 149 151 152 148 149 150 158 128 147 156 145 99 70 69 77 70
325 278 170 167 153 141 138 140 145 137 123 129 125 154 145 151 134 144 139 122 118 120 127 128 138 144 143 150 153 149 138 143 148 130 68 61 128 157 155 174 127 88 84
355 347 101 122 117 112 131 141 138 130 129 124 136 123 102 89 100 116 122 119 113 117 117 123 126 135 138 138 145 143 146 129 147 125 144 96 76 99 143 153 163 152 119
5 15 35 42 63 88 109 121 124 122 123 128 134 128 123 122 125 122 114 112 111 113 115 113 112 119 125 134 141 136 142 139 127 135 135 149 152 151 141 119 142 151 137
8 9 14 32 34 45 70 87 96 100 109 110 107 113 124 137 142 145 141 137 131 122 123 123 128 124 123 125 131 128 125 130 128 133 112 104 98 116 112 115 120 139 134
16 13 15 17 22 40 47 59 73 69 72 90 99 106 118 123 130 137 138 129 121 121 130 122 120 118 118 119 118 112 112 114 115 116 109 108 97 98 105 126 143 125 138
20 20 22 24 22 29 29 40 59 63 58 57 60 66 93 114 124 117 110 112 111 124 122 120 116 113 109 109 106 106 108 110 109 109 109 102 101 94 92 98 106 124 156
22 22 26 29 33 31 38 43 43 44 37 41 42 49 62 81 112 125 125 127 126 124 126 121 115 112 103 106 106 106 111 114 109 115 116 115 113 104 103 108 106 84 121
25 23 22 25 31 37 37 42 45 46 46 48 48 44 38 38 53 76 101 112 113 122 125 125 120 117 110 107 107 107 114 117 114 119 126 122 130 120 117 117 115 134 142
29 27 26 25 26 26 28 33 37 44 44 47 53 56 52 48 48 51 51 64 81 93 111 118 121 118 115 115 115 119 123 131 132 131 135 138 142 138 145 150 165 174 168
32 28 28 27 23 24 26 26 27 27 31 50 61 60 58 57 63 65 69 78 84 78 85 94 103 110 116 122 109 115 128 137 133 139 153 149 151 165 173 182 194 199 202
28 25 25 27 22 18 19 24 25 24 22 26 37 49 60 79 78 64 75 92 95 96 102 112 120 120 120 122 140 149 157 168 169 173 179 182 198 206 207 216 226 224 224
17 18 19 16 18 17 11 21 20 20 16 21 27 27 24 25 38 65 98 99 85 104 136 150 155 160 162 175 184 187 190 197 201 204 205 208 212 216 210 207 218 218 229
4 12 12 6 11 3 3 7 4 3 5 8 11 12 17 16 21 17 20 18 38 151 177 186 196 201 213 217 215 197 207 211 214 214 219 225 235 238 239 244 244 211 210
335 357 344 350 356 356 0 3 356 348 351 352 355 2 1 356 356 351 347 343 338 337 306 276 240 231 225 245 242 241 230 219 219 229 237 235 237 243 241 254 257 258 254
312 328 323 332 335 339 344 346 353 349 344 336 327 328 333 330 332 329 312 290 274 272 267 260 255 255 255 263 265 264 259 243 226 230 234 235 240 233 232 241 246 245 246
280 262 257 266 307 328 317 339 351 345 338 342 3 1 350 338 328 316 309 302 287 270 257 256 245 244 252 268 277 278 281 272 259 248 251 247 242 236 246 248 249 248 244
271 272 301 288 308 298 311 342 330 326 318 323 326 321 319 322 314 309 301 297 288 278 270 265 252 244 249 252 270 276 282 273 261 249 248 252 250 244 248 250 250 249 244
280 272 279 268 269 289 322 292 301 299 279 289 297 304 297 303 295 290 289 281 274 274 270 268 266 258 251 252 262 266 261 260 263 262 259 252 254 258 260 259 252 248 244
295 285 274 274 279 271 238 279 284 276 279 285 295 293 285 289 293 284 288 277 264 261 259 261 265 260 256 260 260 267 266 259 254 254 256 254 257 260 261 261 261 261 260
293 291 263 272 273 269 233 263 272 274 280 285 280 280 286 284 277 266 271 273 258 244 245 247 252 255 255 252 261 266 267 267 270 269 264 263 258 256 257 259 261 261 258
289 286 286 286 286 250 267 242 273 276 261 272 279 283 272 282 263 277 271 265 257 239 244 248 247 247 250 248 248 252 265 274 277 278 276 274 275 267 265 288 303 299 283
291 282 279 281 284 285 253 254 274 271 269 267 268 272 279 272 281 273 260 252 246 231 238 234 234 234 243 245 245 238 236 238 245 250 246 252 253 255 255 256 257 252 255
280 278 273 271 283 283 276 274 270 262 257 268 273 266 264 260 269 271 285 284 285 274 261 254 230 229 237 254 264 262 257 256 246 238 228 237 246 243 245 251 259 260 260